Year,Month,Day,Hour,Minute,Value (Times are PST for temperature in C)
2021,04,21,00,00,7.20
2021,04,21,00,01,7.20
2021,04,21,00,02,7.20
2021,04,21,00,03,7.20
2021,04,21,00,04,7.20
2021,04,21,00,05,7.20
2021,04,21,00,06,7.10
2021,04,21,00,07,7.10
2021,04,21,00,08,7.10
2021,04,21,00,09,7.10
2021,04,21,00,10,7.10
2021,04,21,00,11,7.10
2021,04,21,00,12,7.10
2021,04,21,00,13,7.00
2021,04,21,00,14,7.00
2021,04,21,00,15,7.00
2021,04,21,00,16,6.90
2021,04,21,00,17,6.90
2021,04,21,00,18,6.90
2021,04,21,00,19,6.90
2021,04,21,00,20,6.90
2021,04,21,00,21,6.80
2021,04,21,00,22,6.80
2021,04,21,00,23,6.80
2021,04,21,00,24,6.80
2021,04,21,00,25,6.80
2021,04,21,00,26,6.80
2021,04,21,00,27,6.90
2021,04,21,00,28,6.90
2021,04,21,00,29,6.90
2021,04,21,00,30,6.90
2021,04,21,00,31,6.90
2021,04,21,00,32,6.90
2021,04,21,00,33,7.00
2021,04,21,00,34,7.00
2021,04,21,00,35,7.00
2021,04,21,00,36,7.00
2021,04,21,00,37,7.00
2021,04,21,00,38,7.00
2021,04,21,00,39,7.00
2021,04,21,00,40,7.00
2021,04,21,00,41,7.00
2021,04,21,00,42,7.00
2021,04,21,00,43,7.00
2021,04,21,00,44,7.00
2021,04,21,00,45,7.00
2021,04,21,00,46,7.00
2021,04,21,00,47,7.00
2021,04,21,00,48,7.00
2021,04,21,00,49,6.90
2021,04,21,00,50,6.90
2021,04,21,00,51,6.90
2021,04,21,00,52,6.90
2021,04,21,00,53,6.90
2021,04,21,00,54,6.90
2021,04,21,00,55,6.80
2021,04,21,00,56,6.80
2021,04,21,00,57,6.80
2021,04,21,00,58,6.80
2021,04,21,00,59,6.80
2021,04,21,01,00,6.80
2021,04,21,01,01,6.80
2021,04,21,01,02,6.80
2021,04,21,01,03,6.80
2021,04,21,01,04,6.70
2021,04,21,01,05,6.70
2021,04,21,01,06,6.70
2021,04,21,01,07,6.70
2021,04,21,01,08,6.60
2021,04,21,01,09,6.60
2021,04,21,01,10,6.60
2021,04,21,01,11,6.50
2021,04,21,01,12,6.50
2021,04,21,01,13,6.50
2021,04,21,01,14,6.40
2021,04,21,01,15,6.40
2021,04,21,01,16,6.40
2021,04,21,01,17,6.30
2021,04,21,01,18,6.30
2021,04,21,01,19,6.30
2021,04,21,01,20,6.30
2021,04,21,01,21,6.30
2021,04,21,01,22,6.20
2021,04,21,01,23,6.20
2021,04,21,01,24,6.20
2021,04,21,01,25,6.20
2021,04,21,01,26,6.20
2021,04,21,01,27,6.20
2021,04,21,01,28,6.20
2021,04,21,01,29,6.20
2021,04,21,01,30,6.20
2021,04,21,01,31,6.20
2021,04,21,01,32,6.20
2021,04,21,01,33,6.20
2021,04,21,01,34,6.20
2021,04,21,01,35,6.20
2021,04,21,01,36,6.20
2021,04,21,01,37,6.20
2021,04,21,01,38,6.20
2021,04,21,01,39,6.20
2021,04,21,01,40,6.20
2021,04,21,01,41,6.20
2021,04,21,01,42,6.20
2021,04,21,01,43,6.20
2021,04,21,01,44,6.20
2021,04,21,01,45,6.20
2021,04,21,01,46,6.20
2021,04,21,01,47,6.20
2021,04,21,01,48,6.20
2021,04,21,01,49,6.20
2021,04,21,01,50,6.20
2021,04,21,01,51,6.20
2021,04,21,01,52,6.20
2021,04,21,01,53,6.20
2021,04,21,01,54,6.20
2021,04,21,01,55,6.20
2021,04,21,01,56,6.20
2021,04,21,01,57,6.20
2021,04,21,01,58,6.10
2021,04,21,01,59,6.10
2021,04,21,02,00,6.10
2021,04,21,02,01,6.10
2021,04,21,02,02,6.10
2021,04,21,02,03,6.00
2021,04,21,02,04,6.00
2021,04,21,02,05,5.90
2021,04,21,02,06,5.90
2021,04,21,02,07,5.80
2021,04,21,02,08,5.80
2021,04,21,02,09,5.80
2021,04,21,02,10,5.70
2021,04,21,02,11,5.70
2021,04,21,02,12,5.60
2021,04,21,02,13,5.60
2021,04,21,02,14,5.60
2021,04,21,02,15,5.60
2021,04,21,02,16,5.50
2021,04,21,02,17,5.50
2021,04,21,02,18,5.50
2021,04,21,02,19,5.50
2021,04,21,02,20,5.50
2021,04,21,02,21,5.50
2021,04,21,02,22,5.50
2021,04,21,02,23,5.50
2021,04,21,02,24,5.50
2021,04,21,02,25,5.60
2021,04,21,02,26,5.60
2021,04,21,02,27,5.60
2021,04,21,02,28,5.60
2021,04,21,02,29,5.60
2021,04,21,02,30,5.60
2021,04,21,02,31,5.60
2021,04,21,02,32,5.60
2021,04,21,02,33,5.60
2021,04,21,02,34,5.60
2021,04,21,02,35,5.60
2021,04,21,02,36,5.60
2021,04,21,02,37,5.60
2021,04,21,02,38,5.60
2021,04,21,02,39,5.60
2021,04,21,02,40,5.60
2021,04,21,02,41,5.50
2021,04,21,02,42,5.50
2021,04,21,02,43,5.50
2021,04,21,02,44,5.50
2021,04,21,02,45,5.50
2021,04,21,02,46,5.40
2021,04,21,02,47,5.40
2021,04,21,02,48,5.40
2021,04,21,02,49,5.40
2021,04,21,02,50,5.40
2021,04,21,02,51,5.30
2021,04,21,02,52,5.30
2021,04,21,02,53,5.20
2021,04,21,02,54,5.20
2021,04,21,02,55,5.20
2021,04,21,02,56,5.20
2021,04,21,02,57,5.20
2021,04,21,02,58,5.20
2021,04,21,02,59,5.20
2021,04,21,03,00,5.10
2021,04,21,03,01,5.10
2021,04,21,03,02,5.10
2021,04,21,03,03,5.10
2021,04,21,03,04,5.10
2021,04,21,03,05,5.10
2021,04,21,03,06,5.10
2021,04,21,03,07,5.00
2021,04,21,03,08,5.00
2021,04,21,03,09,5.00
2021,04,21,03,10,5.00
2021,04,21,03,11,4.90
2021,04,21,03,12,4.90
2021,04,21,03,13,4.90
2021,04,21,03,14,4.90
2021,04,21,03,15,4.90
2021,04,21,03,16,4.90
2021,04,21,03,17,4.80
2021,04,21,03,18,4.80
2021,04,21,03,19,4.80
2021,04,21,03,20,4.80
2021,04,21,03,21,4.80
2021,04,21,03,22,4.80
2021,04,21,03,23,4.80
2021,04,21,03,24,4.80
2021,04,21,03,25,4.80
2021,04,21,03,26,4.80
2021,04,21,03,27,4.80
2021,04,21,03,28,4.70
2021,04,21,03,29,4.70
2021,04,21,03,30,4.70
2021,04,21,03,31,4.70
2021,04,21,03,32,4.70
2021,04,21,03,33,4.70
2021,04,21,03,34,4.70
2021,04,21,03,35,4.70
2021,04,21,03,36,4.70
2021,04,21,03,37,4.70
2021,04,21,03,38,4.60
2021,04,21,03,39,4.60
2021,04,21,03,40,4.60
2021,04,21,03,41,4.60
2021,04,21,03,42,4.60
2021,04,21,03,43,4.50
2021,04,21,03,44,4.50
2021,04,21,03,45,4.50
2021,04,21,03,46,4.40
2021,04,21,03,47,4.40
2021,04,21,03,48,4.40
2021,04,21,03,49,4.40
2021,04,21,03,50,4.40
2021,04,21,03,51,4.40
2021,04,21,03,52,4.40
2021,04,21,03,53,4.40
2021,04,21,03,54,4.40
2021,04,21,03,55,4.40
2021,04,21,03,56,4.40
2021,04,21,03,57,4.40
2021,04,21,03,58,4.40
2021,04,21,03,59,4.40
2021,04,21,04,00,4.40
2021,04,21,04,01,4.40
2021,04,21,04,02,4.40
2021,04,21,04,03,4.40
2021,04,21,04,04,4.40
2021,04,21,04,05,4.40
2021,04,21,04,06,4.40
2021,04,21,04,07,4.50
2021,04,21,04,08,4.50
2021,04,21,04,09,4.60
2021,04,21,04,10,4.60
2021,04,21,04,11,4.60
2021,04,21,04,12,4.60
2021,04,21,04,13,4.70
2021,04,21,04,14,4.70
2021,04,21,04,15,4.70
2021,04,21,04,16,4.80
2021,04,21,04,17,4.80
2021,04,21,04,18,4.80
2021,04,21,04,19,4.80
2021,04,21,04,20,4.80
2021,04,21,04,21,4.80
2021,04,21,04,22,4.80
2021,04,21,04,23,4.90
2021,04,21,04,24,4.90
2021,04,21,04,25,4.90
2021,04,21,04,26,4.90
2021,04,21,04,27,4.90
2021,04,21,04,28,4.80
2021,04,21,04,29,4.80
2021,04,21,04,30,4.80
2021,04,21,04,31,4.80
2021,04,21,04,32,4.80
2021,04,21,04,33,4.80
2021,04,21,04,34,4.80
2021,04,21,04,35,4.80
2021,04,21,04,36,4.80
2021,04,21,04,37,4.80
2021,04,21,04,38,4.80
2021,04,21,04,39,4.80
2021,04,21,04,40,4.80
2021,04,21,04,41,4.80
2021,04,21,04,42,4.70
2021,04,21,04,43,4.70
2021,04,21,04,44,4.70
2021,04,21,04,45,4.70
2021,04,21,04,46,4.70
2021,04,21,04,47,4.70
2021,04,21,04,48,4.70
2021,04,21,04,49,4.60
2021,04,21,04,50,4.60
2021,04,21,04,51,4.60
2021,04,21,04,52,4.60
2021,04,21,04,53,4.60
2021,04,21,04,54,4.60
2021,04,21,04,55,4.60
2021,04,21,04,56,4.50
2021,04,21,04,57,4.50
2021,04,21,04,58,4.50
2021,04,21,04,59,4.40
2021,04,21,05,00,4.40
2021,04,21,05,01,4.30
2021,04,21,05,02,4.30
2021,04,21,05,03,4.30
2021,04,21,05,04,4.30
2021,04,21,05,05,4.20
2021,04,21,05,06,4.20
2021,04,21,05,07,4.20
2021,04,21,05,08,4.20
2021,04,21,05,09,4.20
2021,04,21,05,10,4.20
2021,04,21,05,11,4.10
2021,04,21,05,12,4.10
2021,04,21,05,13,4.10
2021,04,21,05,14,4.10
2021,04,21,05,15,4.00
2021,04,21,05,16,4.00
2021,04,21,05,17,4.00
2021,04,21,05,18,3.90
2021,04,21,05,19,3.90
2021,04,21,05,20,3.90
2021,04,21,05,21,3.90
2021,04,21,05,22,3.90
2021,04,21,05,23,3.90
2021,04,21,05,24,3.90
2021,04,21,05,25,3.90
2021,04,21,05,26,3.90
2021,04,21,05,27,3.90
2021,04,21,05,28,3.90
2021,04,21,05,29,3.90
2021,04,21,05,30,3.90
2021,04,21,05,31,3.80
2021,04,21,05,32,3.80
2021,04,21,05,33,3.80
2021,04,21,05,34,3.80
2021,04,21,05,35,3.80
2021,04,21,05,36,3.70
2021,04,21,05,37,3.70
2021,04,21,05,38,3.70
2021,04,21,05,39,3.70
2021,04,21,05,40,3.70
2021,04,21,05,41,3.70
2021,04,21,05,42,3.70
2021,04,21,05,43,3.60
2021,04,21,05,44,3.60
2021,04,21,05,45,3.60
2021,04,21,05,46,3.60
2021,04,21,05,47,3.60
2021,04,21,05,48,3.60
2021,04,21,05,49,3.60
2021,04,21,05,50,3.50
2021,04,21,05,51,3.50
2021,04,21,05,52,3.50
2021,04,21,05,53,3.40
2021,04,21,05,54,3.40
2021,04,21,05,55,3.40
2021,04,21,05,56,3.40
2021,04,21,05,57,3.40
2021,04,21,05,58,3.40
2021,04,21,05,59,3.40
2021,04,21,06,00,3.30
2021,04,21,06,01,3.30
2021,04,21,06,02,3.30
2021,04,21,06,03,3.30
2021,04,21,06,04,3.30
2021,04,21,06,05,3.30
2021,04,21,06,06,3.30
2021,04,21,06,07,3.30
2021,04,21,06,08,3.30
2021,04,21,06,09,3.30
2021,04,21,06,10,3.30
2021,04,21,06,11,3.30
2021,04,21,06,12,3.30
2021,04,21,06,13,3.30
2021,04,21,06,14,3.30
2021,04,21,06,15,3.30
2021,04,21,06,16,3.30
2021,04,21,06,17,3.40
2021,04,21,06,18,3.40
2021,04,21,06,19,3.40
2021,04,21,06,20,3.40
2021,04,21,06,21,3.50
2021,04,21,06,22,3.50
2021,04,21,06,23,3.50
2021,04,21,06,24,3.60
2021,04,21,06,25,3.60
2021,04,21,06,26,3.60
2021,04,21,06,27,3.60
2021,04,21,06,28,3.50
2021,04,21,06,29,3.60
2021,04,21,06,30,3.60
2021,04,21,06,31,3.60
2021,04,21,06,32,3.60
2021,04,21,06,33,3.60
2021,04,21,06,34,3.60
2021,04,21,06,35,3.60
2021,04,21,06,36,3.70
2021,04,21,06,37,3.70
2021,04,21,06,38,3.70
2021,04,21,06,39,3.70
2021,04,21,06,40,3.80
2021,04,21,06,41,3.80
2021,04,21,06,42,3.80
2021,04,21,06,43,3.90
2021,04,21,06,44,3.90
2021,04,21,06,45,4.00
2021,04,21,06,46,4.00
2021,04,21,06,47,4.00
2021,04,21,06,48,4.00
2021,04,21,06,49,4.00
2021,04,21,06,50,4.10
2021,04,21,06,51,4.10
2021,04,21,06,52,4.10
2021,04,21,06,53,4.10
2021,04,21,06,54,4.20
2021,04,21,06,55,4.30
2021,04,21,06,56,4.30
2021,04,21,06,57,4.40
2021,04,21,06,58,4.50
2021,04,21,06,59,4.60
2021,04,21,07,00,4.60
2021,04,21,07,01,4.70
2021,04,21,07,02,4.80
2021,04,21,07,03,4.80
2021,04,21,07,04,4.80
2021,04,21,07,05,4.90
2021,04,21,07,06,4.90
2021,04,21,07,07,4.90
2021,04,21,07,08,5.00
2021,04,21,07,09,5.10
2021,04,21,07,10,5.10
2021,04,21,07,11,5.20
2021,04,21,07,12,5.20
2021,04,21,07,13,5.20
2021,04,21,07,14,5.30
2021,04,21,07,15,5.30
2021,04,21,07,16,5.40
2021,04,21,07,17,5.40
2021,04,21,07,18,5.50
2021,04,21,07,19,5.60
2021,04,21,07,20,5.70
2021,04,21,07,21,5.80
2021,04,21,07,22,5.80
2021,04,21,07,23,5.90
2021,04,21,07,24,6.00
2021,04,21,07,25,6.00
2021,04,21,07,26,6.10
2021,04,21,07,27,6.10
2021,04,21,07,28,6.10
2021,04,21,07,29,6.10
2021,04,21,07,30,6.10
2021,04,21,07,31,6.20
2021,04,21,07,32,6.20
2021,04,21,07,33,6.30
2021,04,21,07,34,6.30
2021,04,21,07,35,6.30
2021,04,21,07,36,6.30
2021,04,21,07,37,6.30
2021,04,21,07,38,6.20
2021,04,21,07,39,6.20
2021,04,21,07,40,6.20
2021,04,21,07,41,6.20
2021,04,21,07,42,6.10
2021,04,21,07,43,6.10
2021,04,21,07,44,6.10
2021,04,21,07,45,6.10
2021,04,21,07,46,6.10
2021,04,21,07,47,6.10
2021,04,21,07,48,6.10
2021,04,21,07,49,6.10
2021,04,21,07,50,6.10
2021,04,21,07,51,6.10
2021,04,21,07,52,6.10
2021,04,21,07,53,6.20
2021,04,21,07,54,6.20
2021,04,21,07,55,6.30
2021,04,21,07,56,6.40
2021,04,21,07,57,6.50
2021,04,21,07,58,6.50
2021,04,21,07,59,6.60
2021,04,21,08,00,6.70
2021,04,21,08,01,6.70
2021,04,21,08,02,6.80
2021,04,21,08,03,6.80
2021,04,21,08,04,6.80
2021,04,21,08,05,6.90
2021,04,21,08,06,6.90
2021,04,21,08,07,7.00
2021,04,21,08,08,7.00
2021,04,21,08,09,7.10
2021,04,21,08,10,7.20
2021,04,21,08,11,7.30
2021,04,21,08,12,7.30
2021,04,21,08,13,7.40
2021,04,21,08,14,7.50
2021,04,21,08,15,7.60
2021,04,21,08,16,7.70
2021,04,21,08,17,7.80
2021,04,21,08,18,7.80
2021,04,21,08,19,7.90
2021,04,21,08,20,7.90
2021,04,21,08,21,8.00
2021,04,21,08,22,8.00
2021,04,21,08,23,8.10
2021,04,21,08,24,8.10
2021,04,21,08,25,8.20
2021,04,21,08,26,8.30
2021,04,21,08,27,8.30
2021,04,21,08,28,8.30
2021,04,21,08,29,8.30
2021,04,21,08,30,8.30
2021,04,21,08,31,8.40
2021,04,21,08,32,8.40
2021,04,21,08,33,8.40
2021,04,21,08,34,8.40
2021,04,21,08,35,8.50
2021,04,21,08,36,8.50
2021,04,21,08,37,8.60
2021,04,21,08,38,8.70
2021,04,21,08,39,8.90
2021,04,21,08,40,8.90
2021,04,21,08,41,8.90
2021,04,21,08,42,9.00
2021,04,21,08,43,9.00
2021,04,21,08,44,9.10
2021,04,21,08,45,9.20
2021,04,21,08,46,9.20
2021,04,21,08,47,9.40
2021,04,21,08,48,9.50
2021,04,21,08,49,9.50
2021,04,21,08,50,9.50
2021,04,21,08,51,9.60
2021,04,21,08,52,9.60
2021,04,21,08,53,9.70
2021,04,21,08,54,9.70
2021,04,21,08,55,9.70
2021,04,21,08,56,9.70
2021,04,21,08,57,9.80
2021,04,21,08,58,9.80
2021,04,21,08,59,9.90
2021,04,21,09,00,9.90
2021,04,21,09,01,9.90
2021,04,21,09,02,10.00
2021,04,21,09,03,10.00
2021,04,21,09,04,10.10
2021,04,21,09,05,10.20
2021,04,21,09,06,10.30
2021,04,21,09,07,10.30
2021,04,21,09,08,10.40
2021,04,21,09,09,10.40
2021,04,21,09,10,10.50
2021,04,21,09,11,10.50
2021,04,21,09,12,10.60
2021,04,21,09,13,10.70
2021,04,21,09,14,10.80
2021,04,21,09,15,10.80
2021,04,21,09,16,10.80
2021,04,21,09,17,10.90
2021,04,21,09,18,10.90
2021,04,21,09,19,11.10
2021,04,21,09,20,11.10
2021,04,21,09,21,11.10
2021,04,21,09,22,11.10
2021,04,21,09,23,11.10
2021,04,21,09,24,11.10
2021,04,21,09,25,11.00
2021,04,21,09,26,10.90
2021,04,21,09,27,11.00
2021,04,21,09,28,11.00
2021,04,21,09,29,11.00
2021,04,21,09,30,10.90
2021,04,21,09,31,10.80
2021,04,21,09,32,10.70
2021,04,21,09,33,10.50
2021,04,21,09,34,10.30
2021,04,21,09,35,10.20
2021,04,21,09,36,10.10
2021,04,21,09,37,10.10
2021,04,21,09,38,10.10
2021,04,21,09,39,10.10
2021,04,21,09,40,10.10
2021,04,21,09,41,10.00
2021,04,21,09,42,9.90
2021,04,21,09,43,9.80
2021,04,21,09,44,9.80
2021,04,21,09,45,9.80
2021,04,21,09,46,9.80
2021,04,21,09,47,9.80
2021,04,21,09,48,9.90
2021,04,21,09,49,9.90
2021,04,21,09,50,10.00
2021,04,21,09,51,10.00
2021,04,21,09,52,10.00
2021,04,21,09,53,10.00
2021,04,21,09,54,9.90
2021,04,21,09,55,9.90
2021,04,21,09,56,9.90
2021,04,21,09,57,9.90
2021,04,21,09,58,9.90
2021,04,21,09,59,9.80
2021,04,21,10,00,9.80
2021,04,21,10,01,9.80
2021,04,21,10,02,9.80
2021,04,21,10,03,9.90
2021,04,21,10,04,9.90
2021,04,21,10,05,9.90
2021,04,21,10,06,10.00
2021,04,21,10,07,10.10
2021,04,21,10,08,10.20
2021,04,21,10,09,10.20
2021,04,21,10,10,10.30
2021,04,21,10,11,10.40
2021,04,21,10,12,10.50
2021,04,21,10,13,10.60
2021,04,21,10,14,10.60
2021,04,21,10,15,10.60
2021,04,21,10,16,10.50
2021,04,21,10,17,10.50
2021,04,21,10,18,10.50
2021,04,21,10,19,10.50
2021,04,21,10,20,10.60
2021,04,21,10,21,10.70
2021,04,21,10,22,10.70
2021,04,21,10,23,10.70
2021,04,21,10,24,10.60
2021,04,21,10,25,10.60
2021,04,21,10,26,10.60
2021,04,21,10,27,10.60
2021,04,21,10,28,10.60
2021,04,21,10,29,10.60
2021,04,21,10,30,10.60
2021,04,21,10,31,10.60
2021,04,21,10,32,10.60
2021,04,21,10,33,10.70
2021,04,21,10,34,10.80
2021,04,21,10,35,10.90
2021,04,21,10,36,11.00
2021,04,21,10,37,11.10
2021,04,21,10,38,11.10
2021,04,21,10,39,11.20
2021,04,21,10,40,11.20
2021,04,21,10,41,11.30
2021,04,21,10,42,11.30
2021,04,21,10,43,11.30
2021,04,21,10,44,11.30
2021,04,21,10,45,11.30
2021,04,21,10,46,11.30
2021,04,21,10,47,11.30
2021,04,21,10,48,11.20
2021,04,21,10,49,11.20
2021,04,21,10,50,11.20
2021,04,21,10,51,11.20
2021,04,21,10,52,11.30
2021,04,21,10,53,11.30
2021,04,21,10,54,11.30
2021,04,21,10,55,11.30
2021,04,21,10,56,11.30
2021,04,21,10,57,11.40
2021,04,21,10,58,11.50
2021,04,21,10,59,11.50
2021,04,21,11,00,11.40
2021,04,21,11,01,11.50
2021,04,21,11,02,11.60
2021,04,21,11,03,11.70
2021,04,21,11,04,11.70
2021,04,21,11,05,11.70
2021,04,21,11,06,11.80
2021,04,21,11,07,11.80
2021,04,21,11,08,11.90
2021,04,21,11,09,12.00
2021,04,21,11,10,12.10
2021,04,21,11,11,12.10
2021,04,21,11,12,12.10
2021,04,21,11,13,12.10
2021,04,21,11,14,12.10
2021,04,21,11,15,12.10
2021,04,21,11,16,12.10
2021,04,21,11,17,12.20
2021,04,21,11,18,12.20
2021,04,21,11,19,12.30
2021,04,21,11,20,12.30
2021,04,21,11,21,12.30
2021,04,21,11,22,12.40
2021,04,21,11,23,12.50
2021,04,21,11,24,12.50
2021,04,21,11,25,12.60
2021,04,21,11,26,12.60
2021,04,21,11,27,12.50
2021,04,21,11,28,12.50
2021,04,21,11,29,12.40
2021,04,21,11,30,12.30
2021,04,21,11,31,12.20
2021,04,21,11,32,12.10
2021,04,21,11,33,12.10
2021,04,21,11,34,12.10
2021,04,21,11,35,12.20
2021,04,21,11,36,12.20
2021,04,21,11,37,12.20
2021,04,21,11,38,12.20
2021,04,21,11,39,12.10
2021,04,21,11,40,12.00
2021,04,21,11,41,12.00
2021,04,21,11,42,12.00
2021,04,21,11,43,12.00
2021,04,21,11,44,11.90
2021,04,21,11,45,12.00
2021,04,21,11,46,12.10
2021,04,21,11,47,12.10
2021,04,21,11,48,12.20
2021,04,21,11,49,12.20
2021,04,21,11,50,12.30
2021,04,21,11,51,12.30
2021,04,21,11,52,12.40
2021,04,21,11,53,12.40
2021,04,21,11,54,12.40
2021,04,21,11,55,12.40
2021,04,21,11,56,12.40
2021,04,21,11,57,12.40
2021,04,21,11,58,12.30
2021,04,21,11,59,12.30
2021,04,21,12,00,12.30
2021,04,21,12,01,12.20
2021,04,21,12,02,12.10
2021,04,21,12,03,12.10
2021,04,21,12,04,12.10
2021,04,21,12,05,12.20
2021,04,21,12,06,12.20
2021,04,21,12,07,12.20
2021,04,21,12,08,12.20
2021,04,21,12,09,12.30
2021,04,21,12,10,12.30
2021,04,21,12,11,12.40
2021,04,21,12,12,12.50
2021,04,21,12,13,12.60
2021,04,21,12,14,12.60
2021,04,21,12,15,12.60
2021,04,21,12,16,12.50
2021,04,21,12,17,12.50
2021,04,21,12,18,12.50
2021,04,21,12,19,12.50
2021,04,21,12,20,12.60
2021,04,21,12,21,12.60
2021,04,21,12,22,12.60
2021,04,21,12,23,12.70
2021,04,21,12,24,12.70
2021,04,21,12,25,12.70
2021,04,21,12,26,12.80
2021,04,21,12,27,12.70
2021,04,21,12,28,12.80
2021,04,21,12,29,12.80
2021,04,21,12,30,12.80
2021,04,21,12,31,12.90
2021,04,21,12,32,13.10
2021,04,21,12,33,13.20
2021,04,21,12,34,13.40
2021,04,21,12,35,13.60
2021,04,21,12,36,13.70
2021,04,21,12,37,13.70
2021,04,21,12,38,13.70
2021,04,21,12,39,13.70
2021,04,21,12,40,13.70
2021,04,21,12,41,13.70
2021,04,21,12,42,13.70
2021,04,21,12,43,13.70
2021,04,21,12,44,13.70
2021,04,21,12,45,13.70
2021,04,21,12,46,13.70
2021,04,21,12,47,13.60
2021,04,21,12,48,13.50
2021,04,21,12,49,13.40
2021,04,21,12,50,13.40
2021,04,21,12,51,13.40
2021,04,21,12,52,13.50
2021,04,21,12,53,13.40
2021,04,21,12,54,13.40
2021,04,21,12,55,13.40
2021,04,21,12,56,13.40
2021,04,21,12,57,13.30
2021,04,21,12,58,13.30
2021,04,21,12,59,13.30
2021,04,21,13,00,13.30
2021,04,21,13,01,13.40
2021,04,21,13,02,13.50
2021,04,21,13,03,13.60
2021,04,21,13,04,13.70
2021,04,21,13,05,13.80
2021,04,21,13,06,13.80
2021,04,21,13,07,14.00
2021,04,21,13,08,14.10
2021,04,21,13,09,14.30
2021,04,21,13,10,14.60
2021,04,21,13,11,14.70
2021,04,21,13,12,14.90
2021,04,21,13,13,14.90
2021,04,21,13,14,14.80
2021,04,21,13,15,14.80
2021,04,21,13,16,14.80
2021,04,21,13,17,14.80
2021,04,21,13,18,14.80
2021,04,21,13,19,14.90
2021,04,21,13,20,15.10
2021,04,21,13,21,15.20
2021,04,21,13,22,15.30
2021,04,21,13,23,15.20
2021,04,21,13,24,15.10
2021,04,21,13,25,15.10
2021,04,21,13,26,15.00
2021,04,21,13,27,15.00
2021,04,21,13,28,15.00
2021,04,21,13,29,15.10
2021,04,21,13,30,15.20
2021,04,21,13,31,15.20
2021,04,21,13,32,15.30
2021,04,21,13,33,15.30
2021,04,21,13,34,15.30
2021,04,21,13,35,15.30
2021,04,21,13,36,15.30
2021,04,21,13,37,15.30
2021,04,21,13,38,15.20
2021,04,21,13,39,15.20
2021,04,21,13,40,15.20
2021,04,21,13,41,15.10
2021,04,21,13,42,15.00
2021,04,21,13,43,14.90
2021,04,21,13,44,14.90
2021,04,21,13,45,14.90
2021,04,21,13,46,14.90
2021,04,21,13,47,15.00
2021,04,21,13,48,15.10
2021,04,21,13,49,15.20
2021,04,21,13,50,15.20
2021,04,21,13,51,15.30
2021,04,21,13,52,15.40
2021,04,21,13,53,15.50
2021,04,21,13,54,15.50
2021,04,21,13,55,15.40
2021,04,21,13,56,15.40
2021,04,21,13,57,15.30
2021,04,21,13,58,15.20
2021,04,21,13,59,15.10
2021,04,21,14,00,15.00
2021,04,21,14,01,14.90
2021,04,21,14,02,14.90
2021,04,21,14,03,14.90
2021,04,21,14,04,14.90
2021,04,21,14,05,14.90
2021,04,21,14,06,15.00
2021,04,21,14,07,15.10
2021,04,21,14,08,15.10
2021,04,21,14,09,15.20
2021,04,21,14,10,15.30
2021,04,21,14,11,15.30
2021,04,21,14,12,15.30
2021,04,21,14,13,15.30
2021,04,21,14,14,15.30
2021,04,21,14,15,15.30
2021,04,21,14,16,15.20
2021,04,21,14,17,15.20
2021,04,21,14,18,15.10
2021,04,21,14,19,15.00
2021,04,21,14,20,15.00
2021,04,21,14,21,15.10
2021,04,21,14,22,15.10
2021,04,21,14,23,15.00
2021,04,21,14,24,14.90
2021,04,21,14,25,15.00
2021,04,21,14,26,15.00
2021,04,21,14,27,15.10
2021,04,21,14,28,15.20
2021,04,21,14,29,15.30
2021,04,21,14,30,15.30
2021,04,21,14,31,15.30
2021,04,21,14,32,15.10
2021,04,21,14,33,15.00
2021,04,21,14,34,15.00
2021,04,21,14,35,14.90
2021,04,21,14,36,14.80
2021,04,21,14,37,14.60
2021,04,21,14,38,14.40
2021,04,21,14,39,14.30
2021,04,21,14,40,14.10
2021,04,21,14,41,14.00
2021,04,21,14,42,14.00
2021,04,21,14,43,14.00
2021,04,21,14,44,14.00
2021,04,21,14,45,14.00
2021,04,21,14,46,13.90
2021,04,21,14,47,13.80
2021,04,21,14,48,13.80
2021,04,21,14,49,13.80
2021,04,21,14,50,13.90
2021,04,21,14,51,14.10
2021,04,21,14,52,14.30
2021,04,21,14,53,14.40
2021,04,21,14,54,14.30
2021,04,21,14,55,14.30
2021,04,21,14,56,14.10
2021,04,21,14,57,14.00
2021,04,21,14,58,13.80
2021,04,21,14,59,13.70
2021,04,21,15,00,13.70
2021,04,21,15,01,13.70
2021,04,21,15,02,13.60
2021,04,21,15,03,13.50
2021,04,21,15,04,13.40
2021,04,21,15,05,13.30
2021,04,21,15,06,13.30
2021,04,21,15,07,13.30
2021,04,21,15,08,13.30
2021,04,21,15,09,13.20
2021,04,21,15,10,13.10
2021,04,21,15,11,13.10
2021,04,21,15,12,13.10
2021,04,21,15,13,13.10
2021,04,21,15,14,13.10
2021,04,21,15,15,13.10
2021,04,21,15,16,13.20
2021,04,21,15,17,13.20
2021,04,21,15,18,13.10
2021,04,21,15,19,13.10
2021,04,21,15,20,13.00
2021,04,21,15,21,13.00
2021,04,21,15,22,13.00
2021,04,21,15,23,13.10
2021,04,21,15,24,13.10
2021,04,21,15,25,13.00
2021,04,21,15,26,13.10
2021,04,21,15,27,13.10
2021,04,21,15,28,13.20
2021,04,21,15,29,13.30
2021,04,21,15,30,13.50
2021,04,21,15,31,13.70
2021,04,21,15,32,13.90
2021,04,21,15,33,14.00
2021,04,21,15,34,14.10
2021,04,21,15,35,14.30
2021,04,21,15,36,14.30
2021,04,21,15,37,14.30
2021,04,21,15,38,14.30
2021,04,21,15,39,14.40
2021,04,21,15,40,14.30
2021,04,21,15,41,14.10
2021,04,21,15,42,14.00
2021,04,21,15,43,13.90
2021,04,21,15,44,13.80
2021,04,21,15,45,13.90
2021,04,21,15,46,14.10
2021,04,21,15,47,14.10
2021,04,21,15,48,14.10
2021,04,21,15,49,14.10
2021,04,21,15,50,14.20
2021,04,21,15,51,14.40
2021,04,21,15,52,14.50
2021,04,21,15,53,14.70
2021,04,21,15,54,14.70
2021,04,21,15,55,14.70
2021,04,21,15,56,14.80
2021,04,21,15,57,14.90
2021,04,21,15,58,15.00
2021,04,21,15,59,15.10
2021,04,21,16,00,15.20
2021,04,21,16,01,15.30
2021,04,21,16,02,15.50
2021,04,21,16,03,15.60
2021,04,21,16,04,15.80
2021,04,21,16,05,15.80
2021,04,21,16,06,15.90
2021,04,21,16,07,15.90
2021,04,21,16,08,15.90
2021,04,21,16,09,15.90
2021,04,21,16,10,15.90
2021,04,21,16,11,15.80
2021,04,21,16,12,15.60
2021,04,21,16,13,15.40
2021,04,21,16,14,15.30
2021,04,21,16,15,15.20
2021,04,21,16,16,15.10
2021,04,21,16,17,15.20
2021,04,21,16,18,15.30
2021,04,21,16,19,15.40
2021,04,21,16,20,15.40
2021,04,21,16,21,15.30
2021,04,21,16,22,15.30
2021,04,21,16,23,15.20
2021,04,21,16,24,15.20
2021,04,21,16,25,15.20
2021,04,21,16,26,15.20
2021,04,21,16,27,15.30
2021,04,21,16,28,15.40
2021,04,21,16,29,15.40
2021,04,21,16,30,15.40
2021,04,21,16,31,15.60
2021,04,21,16,32,15.70
2021,04,21,16,33,15.90
2021,04,21,16,34,16.00
2021,04,21,16,35,16.10
2021,04,21,16,36,16.20
2021,04,21,16,37,16.20
2021,04,21,16,38,16.30
2021,04,21,16,39,16.40
2021,04,21,16,40,16.40
2021,04,21,16,41,16.40
2021,04,21,16,42,16.40
2021,04,21,16,43,16.30
2021,04,21,16,44,16.30
2021,04,21,16,45,16.30
2021,04,21,16,46,16.20
2021,04,21,16,47,16.20
2021,04,21,16,48,16.20
2021,04,21,16,49,16.30
2021,04,21,16,50,16.30
2021,04,21,16,51,16.30
2021,04,21,16,52,16.30
2021,04,21,16,53,16.30
2021,04,21,16,54,16.40
2021,04,21,16,55,16.50
2021,04,21,16,56,16.50
2021,04,21,16,57,16.50
2021,04,21,16,58,16.60
2021,04,21,16,59,16.50
2021,04,21,17,00,16.40
2021,04,21,17,01,16.20
2021,04,21,17,02,16.10
2021,04,21,17,03,16.10
2021,04,21,17,04,16.20
2021,04,21,17,05,16.20
2021,04,21,17,06,16.20
2021,04,21,17,07,16.10
2021,04,21,17,08,16.10
2021,04,21,17,09,16.00
2021,04,21,17,10,15.90
2021,04,21,17,11,15.80
2021,04,21,17,12,15.70
2021,04,21,17,13,15.40
2021,04,21,17,14,15.10
2021,04,21,17,15,14.80
2021,04,21,17,16,14.50
2021,04,21,17,17,14.20
2021,04,21,17,18,13.80
2021,04,21,17,19,13.60
2021,04,21,17,20,13.40
2021,04,21,17,21,13.40
2021,04,21,17,22,13.10
2021,04,21,17,23,12.80
2021,04,21,17,24,12.50
2021,04,21,17,25,12.30
2021,04,21,17,26,12.10
2021,04,21,17,27,12.00
2021,04,21,17,28,11.90
2021,04,21,17,29,11.80
2021,04,21,17,30,11.80
2021,04,21,17,31,12.00
2021,04,21,17,32,12.10
2021,04,21,17,33,12.20
2021,04,21,17,34,12.30
2021,04,21,17,35,12.40
2021,04,21,17,36,12.50
2021,04,21,17,37,12.50
2021,04,21,17,38,12.60
2021,04,21,17,39,12.70
2021,04,21,17,40,12.70
2021,04,21,17,41,12.70
2021,04,21,17,42,12.70
2021,04,21,17,43,12.80